Theta_e
312 312 313 314 314 315 315 315 315 315 315 315 315 315 315 315 313 300 297 304 308 315 314 309 303 301 302 305 312 314 303 300 304 305 305 303 301 299 297 297 296 300 296 298 300
312 312 313 313 314 314 314 315 315 315 315 315 314 314 315 315 301 297 303 309 312 313 307 302 300 299 299 303 307 306 299 300 304 303 303 301 301 298 294 296 295 295 296 299 299
312 312 312 312 313 314 314 314 314 314 315 314 313 313 313 312 297 296 307 310 310 310 306 304 306 303 300 304 304 304 300 302 300 298 298 302 300 299 296 296 299 296 295 297 296
312 312 312 312 312 313 314 314 314 314 314 314 313 313 313 303 290 297 307 307 308 304 303 302 303 302 300 299 304 297 303 298 299 295 297 298 298 296 295 296 295 293 298 296 296
312 312 312 312 312 313 313 313 313 313 313 313 313 312 305 292 292 298 308 305 301 301 299 301 301 301 298 300 301 299 298 296 293 293 293 293 292 294 296 299 297 294 294 294 295
312 312 312 312 312 313 313 313 312 312 312 313 312 312 297 288 297 299 298 299 298 298 299 300 299 301 299 298 297 295 296 294 292 292 292 290 292 291 293 296 297 294 292 293 294
312 312 312 312 312 312 312 312 311 311 311 312 312 302 294 292 296 298 299 298 298 297 297 297 297 298 298 294 294 295 292 291 291 292 290 290 288 288 293 291 291 295 292 292 294
313 313 312 313 312 312 312 311 310 309 309 310 311 296 292 297 297 297 298 298 299 299 297 297 298 295 294 293 292 290 290 287 291 290 289 287 286 292 293 293 289 291 290 291 292
314 313 313 313 313 311 310 309 307 307 304 308 300 296 292 298 295 296 296 296 297 297 298 297 298 293 292 289 287 289 285 286 287 290 288 287 286 290 290 290 288 289 289 291 291
314 314 314 314 313 311 308 308 308 305 304 297 295 292 292 291 295 295 296 296 296 296 297 295 293 289 288 286 282 283 283 285 284 286 286 284 284 288 290 289 289 289 290 291 291
314 314 314 313 312 307 305 306 301 298 298 293 293 291 291 294 296 295 297 295 295 293 288 291 286 282 286 287 285 284 283 284 284 286 284 284 285 288 291 290 289 289 290 291 291
315 314 314 313 310 307 307 297 294 294 288 293 292 291 292 293 290 293 297 291 291 286 287 286 282 286 287 286 285 284 283 283 284 286 283 285 285 290 292 292 293 292 291 291 291
315 314 313 313 310 304 297 295 300 300 289 292 293 291 292 292 289 290 293 291 288 286 286 284 285 287 286 284 284 283 282 283 282 285 285 282 282 286 290 291 293 294 293 293 292
316 315 313 310 307 302 297 299 301 301 286 289 288 290 292 294 288 293 293 290 287 285 285 284 285 285 283 284 285 281 284 284 283 282 279 282 277 286 289 289 289 291 291 290 291
313 315 313 309 304 301 299 300 301 298 278 289 287 294 293 289 290 290 293 290 285 284 284 282 281 281 282 282 283 282 284 283 282 280 279 279 277 283 288 288 290 290 291 290 291
310 311 313 313 310 302 302 302 299 287 277 282 288 286 286 288 288 290 291 292 290 285 284 281 284 283 282 283 283 284 282 282 281 280 275 280 279 281 286 288 287 288 290 292 291
307 309 310 306 306 303 303 299 286 280 289 284 282 285 285 284 285 286 285 283 282 277 279 279 279 282 284 280 282 282 279 278 276 273 275 278 277 282 288 288 289 289 289 289 290
305 306 309 306 304 302 300 292 283 287 285 287 284 283 281 283 283 283 282 281 285 283 282 278 277 279 282 280 279 279 279 279 274 276 277 277 275 283 289 290 290 291 291 291 290
303 304 301 305 303 299 293 284 287 287 292 286 283 280 282 281 281 282 280 281 285 284 281 280 277 280 281 282 281 279 275 280 278 273 273 278 282 288 290 288 288 288 289 288 289
296 296 299 304 300 296 288 287 288 296 291 287 281 284 281 280 278 280 282 285 283 284 284 284 277 279 280 281 281 278 282 275 276 269 269 279 279 281 285 287 289 289 288 289 290
295 291 297 301 297 288 286 287 288 295 291 288 286 284 283 281 280 280 283 285 286 282 284 282 282 276 277 275 277 277 276 277 278 278 275 275 278 286 287 289 288 289 290 290 290
291 285 296 295 285 285 286 288 292 292 290 288 287 288 286 284 281 282 282 286 287 285 279 282 281 274 275 278 279 277 278 280 277 276 276 277 276 288 289 290 290 290 291 291 291
286 288 294 292 282 284 286 284 287 288 288 286 286 289 293 289 282 283 284 287 287 284 282 282 278 272 274 275 276 272 278 279 280 279 274 273 277 286 287 286 288 289 290 291 291
286 280 285 285 287 285 285 285 285 287 289 290 287 286 284 285 289 285 284 284 284 285 287 288 281 278 278 280 276 270 274 277 276 273 277 280 281 285 286 286 288 289 290 290 290
286 280 285 280 280 283 284 284 283 284 286 287 285 287 284 282 284 284 286 284 283 286 284 283 277 275 278 280 278 277 273 276 276 279 276 282 282 286 288 290 291 290 289 290 290
281 282 284 282 282 282 284 281 282 283 285 283 283 287 286 285 287 284 286 284 283 281 281 281 278 275 275 279 279 275 278 277 279 279 279 281 281 287 288 289 289 291 290 290 290
288 288 283 280 279 279 278 280 282 285 286 288 286 286 285 288 291 292 292 293 288 284 280 278 278 276 275 280 277 273 276 278 279 281 282 278 284 288 288 289 290 291 292 291 291
Wind_Speed
12 12 12 12 12 12 12 12 12 12 11 11 12 11 11 12 11 4 6 5 7 14 10 10 7 7 8 6 4 4 5 7 14 12 7 8 7 2 4 4 2 5 4 4 14
15 15 15 15 15 14 14 13 13 11 11 10 10 11 11 10 5 10 4 7 9 8 5 8 4 8 5 6 4 6 4 8 6 7 6 7 6 10 2 4 5 4 7 8 10
15 16 16 16 16 16 16 15 15 14 13 10 8 9 11 6 4 1 8 10 7 5 7 8 10 9 9 5 5 5 5 7 6 7 8 4 6 3 6 7 8 12 12 10 8
16 17 17 16 16 16 16 16 15 15 14 9 7 7 8 4 3 4 10 10 8 4 5 5 6 4 4 6 6 4 2 3 3 4 5 2 5 4 8 3 5 6 10 15 12
16 17 18 18 17 17 17 17 15 15 13 9 6 5 3 3 5 6 10 7 6 2 4 6 7 8 6 6 2 7 1 2 4 1 4 6 6 7 10 12 6 2 1 12 11
15 16 17 18 19 19 18 16 15 15 11 8 6 3 4 6 1 6 6 4 5 5 2 3 4 7 5 4 3 7 4 0 3 3 2 2 6 3 9 13 11 10 9 8 11
16 16 17 18 19 20 20 18 16 13 11 8 6 4 4 5 1 3 6 1 3 3 1 2 4 3 3 2 1 1 3 5 8 5 2 2 8 14 14 5 6 11 10 9 10
16 17 19 20 21 21 20 18 15 9 9 9 6 4 6 2 1 3 6 2 2 1 2 4 5 5 3 2 2 3 2 3 4 7 4 2 8 4 8 13 9 9 10 10 11
14 16 19 20 21 22 19 17 12 6 5 4 4 4 4 4 2 2 3 2 5 1 1 2 1 3 1 3 2 4 4 7 3 5 3 7 7 0 5 7 8 9 9 10 10
14 15 18 21 21 18 20 11 3 5 6 5 4 3 3 3 2 1 4 0 1 1 1 1 1 2 3 4 5 3 5 4 5 4 3 6 18 17 8 7 10 9 10 11 12
14 16 18 20 22 18 11 2 2 2 5 4 1 4 2 2 1 3 1 3 1 1 3 1 3 7 7 9 2 3 5 7 3 3 2 9 16 18 12 9 12 11 10 10 11
14 16 19 20 20 16 5 6 3 2 9 5 3 3 1 1 2 2 2 5 5 5 4 1 7 2 3 2 0 3 6 7 3 4 2 8 16 19 16 18 17 13 14 13 9
13 14 17 20 13 3 7 4 3 3 5 3 2 2 3 3 1 4 2 2 4 6 7 6 2 2 1 2 3 4 6 3 1 4 8 7 10 7 5 12 13 14 10 11 12
13 12 14 24 2 2 3 2 1 3 3 6 4 3 4 3 3 2 1 1 2 4 5 4 2 2 2 3 4 3 5 3 3 3 4 2 8 6 5 7 7 8 8 7 7
18 13 10 8 5 3 2 2 0 3 6 2 3 2 3 4 4 3 2 1 4 6 5 5 5 4 3 2 2 1 3 2 0 2 4 3 3 9 2 6 9 9 9 9 9
20 20 11 3 4 2 2 1 3 5 10 1 2 3 3 5 5 4 3 2 3 3 1 2 1 1 3 3 2 4 2 1 1 1 2 7 6 6 4 4 4 4 4 9 8
20 21 7 1 2 2 2 2 5 5 2 4 2 2 4 5 5 6 6 6 6 4 6 3 4 3 2 5 1 2 2 1 3 1 7 3 2 8 12 4 5 7 5 6 7
21 21 5 3 3 1 2 3 10 3 7 1 3 1 4 5 3 6 3 4 10 3 2 6 6 8 6 3 6 7 4 6 6 4 2 2 8 9 4 4 4 7 7 8 8
21 3 3 4 5 3 3 5 8 8 6 3 2 4 3 2 1 6 7 5 10 14 10 5 1 3 5 3 2 6 5 1 4 2 3 6 8 10 4 5 4 3 5 8 7
6 6 6 7 10 4 3 11 7 6 5 2 3 7 5 4 4 7 7 5 5 3 2 3 2 1 2 2 3 1 3 4 2 3 5 6 6 8 1 5 8 8 9 9 8
4 4 2 2 3 2 13 9 7 9 4 7 8 7 6 6 7 5 5 5 4 4 4 2 4 1 2 9 9 4 3 1 0 4 6 3 8 7 3 7 8 9 10 10 10
4 6 2 1 3 4 14 6 4 8 7 10 4 7 8 7 7 8 10 7 8 9 10 7 4 5 9 3 3 2 4 7 5 6 4 2 9 5 7 6 7 7 6 7 9
4 4 2 1 9 13 5 5 5 6 9 7 10 12 11 18 5 9 8 2 10 10 10 9 4 1 4 4 4 4 7 5 2 2 7 6 7 3 5 4 3 5 7 7 6
3 5 2 2 3 7 14 18 14 7 10 6 4 0 3 5 11 5 5 4 4 5 3 6 3 10 13 6 7 6 7 8 6 5 5 19 9 5 2 5 6 8 8 8 9
4 5 2 3 6 13 13 11 13 17 4 4 6 15 8 7 5 12 14 3 3 2 3 2 7 4 7 1 5 8 7 13 20 25 10 19 16 14 13 13 11 9 8 9 10
4 4 2 7 7 11 12 20 24 25 11 7 8 14 15 17 19 9 8 7 6 2 5 1 5 3 11 7 8 5 10 19 21 13 22 21 26 6 7 6 7 9 9 11 9
3 8 7 7 6 6 10 16 12 16 15 22 22 19 15 20 15 14 13 14 9 11 13 8 5 4 12 6 4 5 28 15 14 16 17 20 30 6 13 16 19 20 19 12 12
Wind_Direction
9 6 356 352 350 348 343 338 338 335 329 328 328 329 329 328 314 245 275 25 326 326 323 281 262 249 230 241 258 256 255 236 246 246 241 108 149 109 22 113 308 152 34 51 123
3 358 353 351 345 342 339 335 330 327 325 322 327 326 320 326 279 277 66 349 321 318 287 257 243 196 208 208 193 219 228 245 11 357 35 126 194 142 182 198 189 152 98 111 133
359 354 350 345 343 339 335 334 327 322 322 319 321 326 320 299 265 108 9 330 310 274 250 292 299 208 238 208 220 215 243 353 52 11 350 143 207 115 182 234 195 193 175 169 169
355 351 347 344 339 334 331 326 319 319 311 305 313 321 332 263 242 52 351 331 306 266 234 245 243 240 234 215 189 277 304 352 22 22 336 349 10 219 211 235 72 2 153 164 182
353 349 344 339 336 332 328 324 318 311 305 294 293 299 278 236 259 1 346 336 279 231 236 267 258 238 249 212 133 239 168 358 49 2 314 9 260 246 248 233 174 113 41 170 181
351 346 342 337 333 330 326 321 314 309 295 270 262 270 236 240 131 360 345 322 356 282 221 271 340 340 329 8 284 346 4 42 200 192 236 271 261 187 241 230 243 167 187 211 182
347 342 341 336 332 329 323 317 314 308 293 267 244 232 243 251 62 13 353 351 295 314 246 68 332 312 355 178 312 262 276 207 211 202 208 229 271 235 226 176 222 207 182 215 195
340 336 338 334 331 328 319 311 306 291 280 267 239 237 260 124 13 46 346 225 20 347 53 334 339 110 11 128 207 237 252 252 85 144 146 171 259 257 213 197 212 226 186 199 216
334 334 335 331 331 328 319 310 291 284 279 246 236 228 249 146 181 80 42 345 296 2 59 233 312 98 149 220 213 229 271 202 222 211 117 196 271 248 10 192 212 225 209 200 203
332 334 334 331 335 330 323 293 262 288 231 234 266 304 168 149 110 231 140 75 321 167 153 139 141 204 221 191 218 219 226 251 241 187 230 238 262 276 260 220 230 236 219 205 200
331 333 334 333 338 333 337 256 289 205 235 236 44 288 72 40 163 162 26 181 172 273 201 52 179 209 209 221 25 323 315 303 111 141 262 232 259 265 257 238 215 213 218 221 206
328 330 331 332 336 327 325 48 62 269 305 183 231 237 100 343 219 161 263 182 174 192 118 89 233 70 76 48 81 245 279 273 82 152 191 282 273 266 247 233 227 214 207 212 202
320 325 329 327 323 346 71 58 333 298 262 202 188 233 117 203 285 147 283 176 202 208 184 214 125 106 228 162 191 220 229 305 313 284 215 296 274 239 247 233 236 229 213 202 198
315 319 330 324 322 330 67 33 333 311 347 236 195 146 177 256 228 87 335 277 154 213 170 233 70 162 165 238 177 244 8 16 341 341 263 163 286 289 236 211 212 222 220 204 215
350 317 317 341 297 331 345 322 184 215 319 68 143 69 116 224 130 127 46 285 194 183 144 217 158 162 177 126 0 149 15 64 339 275 5 213 245 267 221 239 216 204 204 195 195
348 335 313 247 237 126 167 246 229 43 252 320 101 173 195 186 166 132 185 183 347 135 33 92 113 197 115 106 75 137 173 186 273 257 301 218 180 271 205 253 101 108 180 160 160
334 332 293 303 305 136 249 216 6 192 307 287 251 192 263 174 189 191 174 179 170 104 216 141 198 140 186 112 102 202 132 312 340 1 232 4 290 260 292 306 161 162 161 143 141
327 318 245 228 122 116 258 62 228 207 241 195 156 169 228 135 231 193 197 232 232 229 128 171 283 168 176 243 179 184 189 174 214 207 282 77 236 253 180 33 139 125 138 139 158
325 283 229 216 150 91 106 207 227 182 190 194 200 198 249 204 229 173 225 226 199 176 181 162 194 62 2 354 348 170 198 234 102 47 44 223 263 304 241 148 145 171 186 163 178
315 281 244 139 136 111 165 239 236 227 159 138 226 192 222 193 190 190 196 212 197 177 126 201 105 3 83 294 262 318 318 107 326 174 248 258 242 233 256 199 204 204 192 186 175
274 259 65 139 163 112 224 229 213 214 230 201 212 238 228 190 191 218 237 276 161 131 81 143 130 128 68 202 177 161 233 232 25 175 188 252 254 195 151 150 182 208 181 186 171
296 262 76 306 170 204 230 192 217 215 232 245 250 246 218 190 210 226 214 219 146 156 167 204 147 177 204 80 47 357 224 176 142 237 244 155 263 198 145 150 141 148 152 159 166
260 269 93 324 232 226 231 244 209 203 206 207 227 226 211 240 231 211 198 185 157 177 174 186 217 133 324 7 8 210 200 222 70 42 216 149 263 50 131 160 228 174 169 168 179
264 277 165 198 280 262 246 244 235 206 231 204 227 53 110 246 249 258 248 208 247 195 99 149 199 188 227 190 131 184 205 193 159 185 177 230 250 270 208 210 221 197 217 206 198
228 243 269 228 235 247 252 276 259 243 210 230 214 221 201 236 226 238 240 279 358 62 351 287 228 166 266 135 160 184 167 192 208 223 203 249 236 236 247 274 269 204 213 209 217
255 255 274 270 288 275 236 235 244 252 251 237 245 252 209 232 226 256 225 221 178 153 190 186 274 68 276 230 199 226 221 210 211 227 239 253 261 244 270 268 276 264 225 223 215
236 257 261 268 282 282 248 266 277 269 249 247 257 256 251 259 265 273 270 260 198 180 179 162 190 158 257 250 116 310 234 213 215 221 220 235 246 209 239 240 249 258 256 250 240